K7UV Weather Reports


Display with metric or nautical units.
time (UTC)temp
F
wind
direction
speed
MPH
gust
MPH
rain 1hr
in
rain 24hr
in
rain mn
in
humidity
%
barometer
mb
20260504172823 70 126 0.0 1.0 0.00 0.00 0.00 36 -103.7
20260504172344 69 304 0.0 3.0 0.00 0.00 0.00 38 -103.7
20260504171824 69 145 0.0 3.0 0.00 0.00 0.00 34 -103.7
20260504171325 68 112 1.0 5.0 0.00 0.00 0.00 35 -103.7
20260504170825 68 158 2.0 3.0 0.00 0.00 0.00 34 -103.7
20260504170327 67 323 1.0 3.0 0.00 0.00 0.00 38 -103.7
20260504160335 64 345 0.0 2.0 0.00 0.00 0.00 41 -103.6
20260504150838 59 335 1.0 3.0 0.00 0.00 0.00 48 -103.6
20260504150346 59 5 0.0 2.0 0.00 0.00 0.00 47 -103.6
20260504141314 58 303 1.0 2.0 0.00 0.00 0.00 43 -103.6
20260504140822 59 302 1.0 2.0 0.00 0.00 0.00 41 -103.6
20260504140324 59 53 1.0 2.0 0.00 0.00 0.00 41 -103.6
20260504130822 50 124 0.0 1.0 0.00 0.00 0.00 52 -103.6
20260504130325 50 124 0.0 0.0 0.00 0.00 0.00 51 -103.6
20260504110334 50 335 0.0 3.0 0.00 0.00 0.00 55 -103.6
20260504100313 53 153 4.0 6.0 0.00 0.00 0.00 34 -103.7
20260504081824 58 97 5.0 9.0 0.00 0.00 0.00 27 -103.7
20260504081332 58 141 5.0 8.0 0.00 0.00 0.00 27 -103.7
20260504080814 58 149 4.0 11.0 0.00 0.00 0.00 26 -103.7
20260504080345 57 133 5.0 11.0 0.00 0.00 0.00 28 -103.7
20260504070333 57 73 4.0 9.0 0.00 0.00 0.00 29 -103.7
20260504050334 60 131 4.0 7.0 0.00 0.00 0.00 24 -103.7
20260504045815 60 143 3.0 6.0 0.00 0.00 0.00 24 -103.7
20260504045318 60 79 4.0 6.0 0.00 0.00 0.00 24 -103.7
20260504044847 60 156 2.0 6.0 0.00 0.00 0.00 25 -103.7
20260504044336 60 131 3.0 6.0 0.00 0.00 0.00 25 -103.7
20260504043838 60 148 4.0 6.0 0.00 0.00 0.00 24 -103.7
20260504043326 61 135 4.0 6.0 0.00 0.00 0.00 24 -103.7
20260504042827 61 92 4.0 6.0 0.00 0.00 0.00 24 -103.6
20260504042339 61 160 3.0 6.0 0.00 0.00 0.00 24 -103.6
20260504041820 61 135 3.0 7.0 0.00 0.00 0.00 24 -103.7
20260504041329 61 148 3.0 7.0 0.00 0.00 0.00 24 -103.7
20260504040830 61 140 3.0 7.0 0.00 0.00 0.00 24 -103.7
20260504040341 61 128 3.0 6.0 0.00 0.00 0.00 24 -103.6
20260504035821 61 136 3.0 6.0 0.00 0.00 0.00 24 -103.6
20260504035332 61 129 3.0 5.0 0.00 0.00 0.00 24 -103.6
20260504034833 61 153 3.0 6.0 0.00 0.00 0.00 24 -103.6
20260504034316 62 150 3.0 5.0 0.00 0.00 0.00 24 -103.7
20260504033824 62 154 3.0 5.0 0.00 0.00 0.00 24 -103.6
20260504033327 62 131 3.0 5.0 0.00 0.00 0.00 23 -103.7
20260504032835 62 130 3.0 5.0 0.00 0.00 0.00 23 -103.7
20260504032319 62 143 3.0 4.0 0.00 0.00 0.00 22 -103.6
20260504031819 63 134 2.0 4.0 0.00 0.00 0.00 23 -103.6
20260504031328 63 157 2.0 4.0 0.00 0.00 0.00 22 -103.7
20260504030830 63 122 2.0 3.0 0.00 0.00 0.00 23 -103.7
20260504030314 63 143 2.0 3.0 0.00 0.00 0.00 23 -103.7
20260504025820 63 136 1.0 4.0 0.00 0.00 0.00 23 -103.7
20260504025323 63 143 2.0 4.0 0.00 0.00 0.00 23 -103.7
20260504024830 63 150 2.0 3.0 0.00 0.00 0.00 24 -103.7
20260504024317 64 135 1.0 3.0 0.00 0.00 0.00 24 -103.6
20260504023818 64 150 2.0 3.0 0.00 0.00 0.00 24 -103.6
20260504023344 65 138 1.0 2.0 0.00 0.00 0.00 23 -103.7
20260504022824 65 141 1.0 2.0 0.00 0.00 0.00 23 -103.7
20260504022334 66 131 1.0 2.0 0.00 0.00 0.00 23 -103.6
20260504021814 66 47 1.0 1.0 0.00 0.00 0.00 21 -103.6
20260504021324 66 4 0.0 0.0 0.00 0.00 0.00 20 -103.6
20260504020826 66 4 0.0 0.0 0.00 0.00 0.00 18 -103.6
20260504020313 67 4 0.0 0.0 0.00 0.00 0.00 17 -103.6
20260504015816 67 4 0.0 0.0 0.00 0.00 0.00 18 -103.6
20260504015319 68 4 0.0 0.0 0.00 0.00 0.00 17 -103.6
20260504014811 68 4 0.0 0.0 0.00 0.00 0.00 17 -103.6
20260504014314 68 4 0.0 0.0 0.00 0.00 0.00 15 -103.6
20260504013815 69 4 0.0 0.0 0.00 0.00 0.00 15 -103.6
20260504013341 69 4 0.0 0.0 0.00 0.00 0.00 16 -103.6
20260504012829 69 337 0.0 1.0 0.00 0.00 0.00 17 -103.6
20260504012352 69 337 0.0 1.0 0.00 0.00 0.00 15 -103.6
20260504011820 69 337 0.0 1.0 0.00 0.00 0.00 16 -103.6
20260504011322 69 337 0.0 1.0 0.00 0.00 0.00 17 -103.6
20260504010830 69 338 0.0 0.0 0.00 0.00 0.00 16 -103.6
20260504010313 70 338 0.0 1.0 0.00 0.00 0.00 16 -103.6
20260504005815 70 338 0.0 2.0 0.00 0.00 0.00 15 -103.6
20260504005345 70 307 0.0 2.0 0.00 0.00 0.00 15 -103.6
20260504004833 70 306 0.0 3.0 0.00 0.00 0.00 16 -103.6
20260504004315 70 338 1.0 4.0 0.00 0.00 0.00 17 -103.6
20260504003823 71 349 2.0 4.0 0.00 0.00 0.00 15 -103.6
20260504003326 71 276 1.0 3.0 0.00 0.00 0.00 17 -103.6
20260504002834 71 302 1.0 4.0 0.00 0.00 0.00 16 -103.5
20260504002313 71 347 1.0 4.0 0.00 0.00 0.00 17 -103.5
20260504001821 71 296 1.0 3.0 0.00 0.00 0.00 16 -103.5
20260504001323 71 348 2.0 4.0 0.00 0.00 0.00 14 -103.5
20260504000823 71 316 1.0 4.0 0.00 0.00 0.00 16 -103.5
20260504000314 72 330 2.0 4.0 0.00 0.00 0.00 16 -103.5
20260503235813 72 342 3.0 4.0 0.00 0.00 0.00 15 -103.5
20260503235342 73 335 0.0 2.0 0.00 0.00 0.00 15 -103.5
20260503234316 72 312 1.0 4.0 0.00 0.00 0.00 18 -103.5
20260503233823 72 356 2.0 3.0 0.00 0.00 0.00 15 -103.5
20260503233333 72 288 1.0 4.0 0.00 0.00 0.00 18 -103.5
20260503232813 72 321 2.0 5.0 0.00 0.00 0.00 15 -103.5
20260503232314 72 309 2.0 5.0 0.00 0.00 0.00 15 -103.5
20260503231842 72 314 1.0 4.0 0.00 0.00 0.00 15 -103.5
20260503231324 71 281 1.0 4.0 0.00 0.00 0.00 15 -103.5
20260503230831 71 333 1.0 2.0 0.00 0.00 0.00 16 -103.5
20260503230314 71 340 0.0 2.0 0.00 0.00 0.00 16 -103.5
20260503225821 71 174 0.0 2.0 0.00 0.00 0.00 16 -103.5
20260503225352 71 335 1.0 2.0 0.00 0.00 0.00 17 -103.5
20260503224812 71 307 0.0 2.0 0.00 0.00 0.00 15 -103.4
20260503224314 71 310 1.0 3.0 0.00 0.00 0.00 16 -103.4
20260503223823 72 304 1.0 3.0 0.00 0.00 0.00 16 -103.4
20260503223325 73 153 1.0 3.0 0.00 0.00 0.00 17 -103.4
20260503222827 73 153 0.0 3.0 0.00 0.00 0.00 19 -103.4
20260503222320 73 161 0.0 4.0 0.00 0.00 0.00 16 -103.4
20260503221816 73 168 3.0 4.0 0.00 0.00 0.00 15 -103.4
20260503221319 73 187 2.0 4.0 0.00 0.00 0.00 15 -103.4
20260503220827 73 130 0.0 2.0 0.00 0.00 0.00 16 -103.4
20260503220329 73 345 1.0 3.0 0.00 0.00 0.00 17 -103.4
20260503215837 73 166 0.0 3.0 0.00 0.00 0.00 17 -103.4
20260503215321 72 146 1.0 4.0 0.00 0.00 0.00 18 -103.3
20260503214821 72 323 2.0 5.0 0.00 0.00 0.00 15 -103.4
20260503214351 72 329 2.0 5.0 0.00 0.00 0.00 16 -103.3
20260503213838 73 296 2.0 3.0 0.00 0.00 0.00 17 -103.3
20260503213319 74 295 1.0 2.0 0.00 0.00 0.00 19 -103.3
20260503212821 73 204 0.0 4.0 0.00 0.00 0.00 21 -103.3
20260503212323 73 319 2.0 6.0 0.00 0.00 0.00 16 -103.3
20260503211831 73 337 0.0 4.0 0.00 0.00 0.00 17 -103.3
20260503211335 74 338 1.0 4.0 0.00 0.00 0.00 16 -103.3
20260503210843 73 355 0.0 4.0 0.00 0.00 0.00 17 -103.3
20260503210352 73 271 1.0 4.0 0.00 0.00 0.00 18 -103.3
20260503205812 74 319 1.0 3.0 0.00 0.00 0.00 18 -103.3
20260503205322 74 133 2.0 4.0 0.00 0.00 0.00 14 -103.3
20260503204822 75 330 1.0 4.0 0.00 0.00 0.00 18 -103.3
20260503204326 74 335 1.0 4.0 0.00 0.00 0.00 21 -103.3
20260503203834 74 157 1.0 4.0 0.00 0.00 0.00 18 -103.3
20260503203314 74 171 2.0 5.0 0.00 0.00 0.00 18 -103.3
20260503202821 74 147 2.0 5.0 0.00 0.00 0.00 18 -103.3
20260503202330 74 98 1.0 3.0 0.00 0.00 0.00 25 -103.3
20260503201851 73 314 0.0 2.0 0.00 0.00 0.00 20 -103.2
20260503201341 74 349 1.0 4.0 0.00 0.00 0.00 22 -103.2
20260503200821 74 50 1.0 4.0 0.00 0.00 0.00 22 -103.2
20260503200330 74 134 1.0 3.0 0.00 0.00 0.00 19 -103.2
20260503195812 75 165 1.0 3.0 0.00 0.00 0.00 19 -103.2
20260503195342 74 153 1.0 3.0 0.00 0.00 0.00 21 -103.2
20260503194822 73 278 0.0 2.0 0.00 0.00 0.00 27 -103.2
20260503194332 72 165 0.0 4.0 0.00 0.00 0.00 21 -103.2
20260503193833 71 6 1.0 4.0 0.00 0.00 0.00 26 -103.2
20260503193315 71 356 2.0 4.0 0.00 0.00 0.00 21 -103.2
20260503192822 72 137 2.0 4.0 0.00 0.00 0.00 23 -103.2
20260503192326 70 299 1.0 5.0 0.00 0.00 0.00 27 -103.2
20260503191833 70 302 2.0 5.0 0.00 0.00 0.00 27 -103.2
20260503191316 70 30 2.0 5.0 0.00 0.00 0.00 27 -103.2
20260503190816 70 344 1.0 3.0 0.00 0.00 0.00 28 -103.1
20260503190345 69 314 1.0 4.0 0.00 0.00 0.00 24 -103.1
20260503185828 69 28 2.0 5.0 0.00 0.00 0.00 27 -103.1
20260503185331 69 117 2.0 4.0 0.00 0.00 0.00 26 -103.1
20260503184812 69 13 1.0 4.0 0.00 0.00 0.00 24 -103.1
20260503184315 69 28 1.0 3.0 0.00 0.00 0.00 29 -103.1
20260503183823 68 297 1.0 4.0 0.00 0.00 0.00 27 -103.1
20260503183326 68 319 2.0 4.0 0.00 0.00 0.00 25 -103.1
20260503182833 69 351 1.0 3.0 0.00 0.00 0.00 25 -103.1
20260503182316 68 166 0.0 3.0 0.00 0.00 0.00 26 -103.1
20260503181844 67 339 2.0 3.0 0.00 0.00 0.00 28 -103.1
20260503181346 67 151 1.0 3.0 0.00 0.00 0.00 29 -103.1
20260503180834 66 332 2.0 4.0 0.00 0.00 0.00 25 -103.1
20260503180316 66 276 2.0 5.0 0.00 0.00 0.00 25 -103.1
20260503175816 66 315 1.0 5.0 0.00 0.00 0.00 26 -103.1
20260503175347 66 142 0.0 2.0 0.00 0.00 0.00 27 -103.1
20260503174834 66 139 0.0 2.0 0.00 0.00 0.00 25 -103.1
20260503174317 65 167 0.0 1.0 0.00 0.00 0.00 26 -103.1
20260503173817 65 32 0.0 2.0 0.00 0.00 0.00 27 -103.1
20260503173327 64 321 1.0 3.0 0.00 0.00 0.00 28 -103.1